nws-alerts: Checking more than four warning/county codes can delay the loading of your pages. You should use a cron job to get the data.
EllijayWeather Historical Data
 
Daily Summary for January 19, 2021 Units:  English    Metric   Both
Daily Weekly Monthly Yearly
  Current: High: Low: Average:
Temperature: 39.0 °F 39.0 °F 26.8 °F 29.7 °F
Dew Point: 33.4 °F 33.4 °F 23.5 °F 26 °F
Humidity: 80% 92% 78% 86%
Wind Speed: 0mph 0mph 0mph 0mph
Wind Gust: 0mph 0mph - -
WindCalm - -
Pressure: 30.4 in 30.4 in 30.2 in -
Precipitation: 0.000 in      
 
 
Tabular Data for January 19, 2021
Time Temperature Dew Point Pressure Wind Wind Speed Wind Gust Humidity Rainfall Rate (Hourly)
00:04 28.5 °F 24.6 °F 30.2 in Calm     85% 0.000 in
00:09 28.4 °F 24.5 °F 30.2 in Calm     85% 0.000 in
00:14 28.4 °F 24.5 °F 30.2 in Calm     85% 0.000 in
00:19 28.3 °F 24.4 °F 30.2 in Calm     85% 0.000 in
00:24 28.3 °F 24.4 °F 30.2 in Calm     85% 0.000 in
00:29 28.3 °F 24.4 °F 30.2 in Calm     85% 0.000 in
00:34 28.3 °F 24.4 °F 30.2 in Calm     85% 0.000 in
00:39 28.3 °F 24.4 °F 30.2 in Calm     85% 0.000 in
00:44 28.3 °F 24.7 °F 30.2 in Calm     86% 0.000 in
00:49 28.3 °F 24.7 °F 30.2 in Calm     86% 0.000 in
00:54 28.4 °F 24.8 °F 30.2 in Calm     86% 0.000 in
00:59 28.3 °F 24.6 °F 30.2 in Calm     86% 0.000 in
01:04 28.2 °F 24.3 °F 30.2 in Calm     85% 0.000 in
01:09 28.1 °F 24.5 °F 30.2 in Calm     86% 0.000 in
01:14 28.1 °F 26.0 °F 30.2 in Calm     92% 0.000 in
01:19 28.1 °F 26.0 °F 30.2 in Calm     92% 0.000 in
01:24 28.0 °F 24.4 °F 30.2 in Calm     86% 0.000 in
01:29 28.0 °F 24.4 °F 30.2 in Calm     86% 0.000 in
01:34 27.9 °F 24.3 °F 30.2 in Calm     86% 0.000 in
01:39 27.9 °F 24.3 °F 30.2 in Calm     86% 0.000 in
01:44 27.9 °F 24.3 °F 30.2 in Calm     86% 0.000 in
01:49 27.9 °F 24.3 °F 30.2 in Calm     86% 0.000 in
01:54 27.9 °F 24.3 °F 30.2 in Calm     86% 0.000 in
01:59 27.9 °F 24.3 °F 30.2 in Calm     86% 0.000 in
02:04 27.9 °F 24.3 °F 30.2 in Calm     86% 0.000 in
02:09 27.9 °F 24.3 °F 30.3 in Calm     86% 0.000 in
02:14 27.9 °F 24.3 °F 30.3 in Calm     86% 0.000 in
02:19 27.9 °F 24.3 °F 30.3 in Calm     86% 0.000 in
02:24 27.9 °F 24.3 °F 30.3 in Calm     86% 0.000 in
02:29 27.8 °F 24.2 °F 30.3 in Calm     86% 0.000 in
02:34 27.9 °F 24.3 °F 30.3 in Calm     86% 0.000 in
02:39 27.8 °F 24.2 °F 30.3 in Calm     86% 0.000 in
02:44 27.6 °F 24.0 °F 30.3 in Calm     86% 0.000 in
02:49 27.6 °F 24.0 °F 30.3 in Calm     86% 0.000 in
02:54 27.5 °F 23.9 °F 30.3 in Calm     86% 0.000 in
02:59 27.4 °F 23.8 °F 30.3 in Calm     86% 0.000 in
03:04 27.3 °F 23.9 °F 30.3 in Calm     87% 0.000 in
03:09 27.1 °F 23.8 °F 30.3 in Calm     87% 0.000 in
03:14 27.1 °F 23.8 °F 30.3 in Calm     87% 0.000 in
03:19 27.0 °F 23.7 °F 30.3 in Calm     87% 0.000 in
03:24 26.9 °F 23.6 °F 30.3 in Calm     87% 0.000 in
03:29 26.9 °F 23.6 °F 30.3 in Calm     87% 0.000 in
03:34 26.8 °F 23.5 °F 30.3 in Calm     87% 0.000 in
03:39 26.8 °F 23.7 °F 30.3 in Calm     88% 0.000 in
03:44 26.8 °F 23.7 °F 30.3 in Calm     88% 0.000 in
03:49 26.8 °F 23.7 °F 30.3 in Calm     88% 0.000 in
03:54 26.8 °F 23.7 °F 30.3 in Calm     88% 0.000 in
03:59 26.9 °F 23.8 °F 30.3 in Calm     88% 0.000 in
04:04 27.1 °F 24.0 °F 30.3 in Calm     88% 0.000 in
04:09 27.4 °F 24.3 °F 30.3 in Calm     88% 0.000 in
04:14 27.5 °F 24.4 °F 30.3 in Calm     88% 0.000 in
04:19 27.7 °F 24.5 °F 30.3 in Calm     88% 0.000 in
04:24 27.8 °F 24.4 °F 30.3 in Calm     87% 0.000 in
04:29 28.0 °F 24.6 °F 30.3 in Calm     87% 0.000 in
04:34 28.1 °F 24.7 °F 30.3 in Calm     87% 0.000 in
04:39 28.2 °F 24.8 °F 30.3 in Calm     87% 0.000 in
04:44 28.3 °F 24.9 °F 30.3 in Calm     87% 0.000 in
04:49 28.4 °F 25.0 °F 30.3 in Calm     87% 0.000 in
04:54 28.6 °F 25.2 °F 30.3 in Calm     87% 0.000 in
04:59 28.6 °F 25.0 °F 30.3 in Calm     86% 0.000 in
05:04 28.6 °F 25.0 °F 30.3 in Calm     86% 0.000 in
05:09 28.7 °F 25.1 °F 30.3 in Calm     86% 0.000 in
05:14 28.7 °F 25.1 °F 30.3 in Calm     86% 0.000 in
05:19 28.6 °F 25.2 °F 30.3 in Calm     87% 0.000 in
05:24 28.5 °F 24.9 °F 30.3 in Calm     86% 0.000 in
05:29 28.5 °F 25.1 °F 30.3 in Calm     87% 0.000 in
05:34 28.5 °F 25.1 °F 30.3 in Calm     87% 0.000 in
05:39 28.6 °F 25.2 °F 30.3 in Calm     87% 0.000 in
05:44 28.7 °F 25.3 °F 30.3 in Calm     87% 0.000 in
05:49 28.7 °F 25.3 °F 30.3 in Calm     87% 0.000 in
05:54 28.9 °F 25.5 °F 30.3 in Calm     87% 0.000 in
05:59 29.1 °F 25.6 °F 30.3 in Calm     87% 0.000 in
06:04 29.2 °F 25.7 °F 30.3 in Calm     87% 0.000 in
06:09 29.4 °F 26.0 °F 30.3 in Calm     87% 0.000 in
06:14 29.4 °F 25.7 °F 30.3 in Calm     86% 0.000 in
06:19 29.4 °F 26.0 °F 30.3 in Calm     87% 0.000 in
06:24 29.5 °F 26.0 °F 30.3 in Calm     87% 0.000 in
06:29 29.4 °F 25.7 °F 30.3 in Calm     86% 0.000 in
06:34 29.5 °F 25.8 °F 30.3 in Calm     86% 0.000 in
06:39 29.5 °F 25.8 °F 30.3 in Calm     86% 0.000 in
06:44 29.7 °F 26.0 °F 30.3 in Calm     86% 0.000 in
06:49 29.8 °F 26.1 °F 30.3 in Calm     86% 0.000 in
06:54 30.1 °F 26.4 °F 30.3 in Calm     86% 0.000 in
06:59 30.2 °F 26.5 °F 30.3 in Calm     86% 0.000 in
07:04 30.3 °F 28.2 °F 30.3 in Calm     92% 0.000 in
07:09 30.5 °F 26.8 °F 30.3 in Calm     86% 0.000 in
07:14 30.5 °F 26.8 °F 30.3 in Calm     86% 0.000 in
07:19 30.5 °F 26.8 °F 30.3 in Calm     86% 0.000 in
07:24 30.5 °F 26.8 °F 30.3 in Calm     86% 0.000 in
07:29 30.5 °F 26.5 °F 30.3 in Calm     85% 0.000 in
07:34 30.5 °F 26.5 °F 30.3 in Calm     85% 0.000 in
07:39 30.3 °F 26.3 °F 30.3 in Calm     85% 0.000 in
07:44 30.3 °F 26.3 °F 30.3 in Calm     85% 0.000 in
07:49 30.2 °F 26.4 °F 30.3 in Calm     86% 0.000 in
07:54 30.0 °F 26.0 °F 30.3 in Calm     85% 0.000 in
07:59 29.8 °F 25.9 °F 30.3 in Calm     85% 0.000 in
08:04 29.7 °F 25.9 °F 30.3 in Calm     86% 0.000 in
08:09 29.5 °F 25.8 °F 30.3 in Calm     86% 0.000 in
08:14 29.4 °F 25.7 °F 30.3 in Calm     86% 0.000 in
08:19 29.4 °F 26.0 °F 30.3 in Calm     87% 0.000 in
08:24 29.5 °F 26.1 °F 30.3 in Calm     87% 0.000 in
08:29 29.6 °F 26.2 °F 30.3 in Calm     87% 0.000 in
08:34 30.0 °F 26.7 °F 30.3 in Calm     88% 0.000 in
08:39 30.4 °F 27.0 °F 30.3 in Calm     88% 0.000 in
08:44 30.7 °F 27.3 °F 30.3 in Calm     87% 0.000 in
08:49 31.0 °F 27.6 °F 30.3 in Calm     87% 0.000 in
08:54 31.6 °F 28.2 °F 30.3 in Calm     87% 0.000 in
08:59 32.1 °F 28.4 °F 30.3 in Calm     87% 0.000 in
09:04 32.8 °F 29.1 °F 30.3 in Calm     86% 0.000 in
09:09 33.5 °F 29.5 °F 30.4 in Calm     86% 0.000 in
09:14 34.4 °F 29.9 °F 30.4 in Calm     85% 0.000 in
09:19 35.3 °F 30.4 °F 30.4 in Calm     83% 0.000 in
09:24 36.1 °F 30.8 °F 30.4 in Calm     82% 0.000 in
09:29 36.7 °F 31.4 °F 30.4 in Calm     81% 0.000 in
09:34 37.3 °F 32.0 °F 30.4 in Calm     81% 0.000 in
09:39 37.6 °F 32.2 °F 30.4 in Calm     81% 0.000 in
09:44 38.0 °F 32.1 °F 30.4 in Calm     79% 0.000 in
09:49 38.2 °F 32.0 °F 30.4 in Calm     78% 0.000 in
09:54 38.4 °F 32.5 °F 30.4 in Calm     79% 0.000 in
09:59 38.5 °F 32.6 °F 30.4 in Calm     79% 0.000 in
10:04 38.6 °F 32.7 °F 30.4 in Calm     79% 0.000 in
10:09 38.7 °F 33.1 °F 30.4 in Calm     80% 0.000 in
10:14 38.8 °F 33.2 °F 30.4 in Calm     80% 0.000 in
10:19 39.0 °F 33.4 °F 30.4 in Calm     80% 0.000 in
East Ellijay Weather
Compliments of Weather Underground - 2 mb